Date String (YYYY-MM-DD hh:mm:ss) UTC,Instrument flags,Ambient pressure (hPa),Sample flow (lpm),Bypass flow (lpm),Sample temperature (°C),Ambient temperature (°C),ASC tube jacket temperature (°C),LED temperature (°C),Box temperature (°C),Sample RH (%),Span deviation,Mass concentration (μg/m³),Mass concentration (μg/m³),Mass concentration (μg/m³)
DateTimeUTC,F1_M11,P_M11,Q1_M11,Q2_M11,T1_M11,T2_M11,T3_M11,T4_M11,T5_M11,U1_M11,ZSPAN_M11,X0_M11,X2_M11,X1_M11
2022-04-24 07:00:00,,0822.0,4.99,0.00,22.2,22.5,00.0,31.2,24.2,12.0,0000.0,0001.31,0000.86,0000.70
2022-04-24 07:01:00,,0822.0,5.00,0.00,22.4,22.9,00.0,31.2,24.4,11.8,0000.0,0001.27,0000.85,0000.70
2022-04-24 07:02:00,,0822.0,4.99,0.00,22.4,22.8,00.0,31.2,24.4,11.8,0000.0,0001.20,0000.81,0000.69
2022-04-24 07:03:00,,0821.8,5.01,0.00,22.4,22.6,00.0,31.2,24.4,11.9,0000.0,0001.21,0000.82,0000.70
2022-04-24 07:04:00,,0822.0,5.00,0.00,22.4,22.4,00.0,31.3,24.3,12.2,0000.0,0001.18,0000.80,0000.70
2022-04-24 07:05:00,,0822.1,4.99,0.00,22.4,22.2,00.0,31.3,24.3,12.5,0000.0,0001.22,0000.82,0000.70
2022-04-24 07:06:00,,0822.1,5.00,0.00,22.4,22.0,00.0,31.3,24.1,12.5,0000.0,0001.18,0000.82,0000.69
2022-04-24 07:07:00,,0822.2,5.00,0.00,22.4,21.9,00.0,31.3,24.2,12.5,0000.0,0001.23,0000.84,0000.69
2022-04-24 07:08:00,,0822.2,5.00,0.00,22.4,21.8,00.0,31.3,24.2,12.6,0000.0,0001.29,0000.86,0000.69
2022-04-24 07:09:00,,0822.2,5.00,0.00,22.4,21.7,00.0,31.3,24.2,12.6,0000.0,0001.50,0000.90,0000.69
2022-04-24 07:10:00,,0822.3,5.00,0.00,22.4,21.7,00.0,31.3,24.2,12.5,0000.0,0001.65,0000.96,0000.71
2022-04-24 07:11:00,,0822.3,4.99,0.00,22.4,21.7,00.0,31.3,24.2,12.7,0000.0,0001.67,0000.96,0000.71
2022-04-24 07:12:00,,0822.3,5.00,0.00,22.4,21.6,00.0,31.3,24.2,12.6,0000.0,0001.68,0000.97,0000.73
2022-04-24 07:13:00,,0822.3,5.00,0.00,22.4,21.7,00.0,31.3,24.2,13.1,0000.0,0001.86,0001.03,0000.73
2022-04-24 07:14:00,,0822.3,5.00,0.00,22.4,21.6,00.0,31.3,24.2,13.3,0000.0,0002.09,0001.12,0000.74
2022-04-24 07:15:00,,0822.3,5.01,0.00,22.4,21.6,00.0,31.3,24.2,13.4,0000.0,0002.69,0001.17,0000.75
2022-04-24 07:16:00,,0822.3,4.99,0.00,22.4,21.6,00.0,31.4,24.2,13.6,0000.0,0002.85,0001.21,0000.76
2022-04-24 07:17:00,,0822.3,5.00,0.00,22.4,21.6,00.0,31.4,24.2,13.5,0000.0,0002.88,0001.22,0000.75
2022-04-24 07:18:00,,0822.4,5.00,0.00,22.5,21.6,00.0,31.4,24.2,13.0,0000.0,0002.88,0001.21,0000.75
2022-04-24 07:19:00,,0822.4,5.00,0.00,22.5,21.6,00.0,31.4,24.2,14.4,0000.0,0003.03,0001.23,0000.74
2022-04-24 07:20:00,,0822.4,5.01,0.00,22.5,21.6,00.0,31.4,24.3,14.6,0000.0,0002.96,0001.23,0000.74
2022-04-24 07:21:00,,0822.4,5.00,0.00,22.5,21.6,00.0,31.4,24.3,14.5,0000.0,0002.88,0001.22,0000.74
2022-04-24 07:22:00,,0822.4,5.00,0.00,22.5,21.7,00.0,31.4,24.3,15.0,0000.0,0002.89,0001.24,0000.75
2022-04-24 07:23:00,,0822.4,5.00,0.00,22.5,21.7,00.0,31.4,24.3,15.1,0000.0,0002.95,0001.26,0000.74
2022-04-24 07:24:00,,0822.5,5.00,0.00,22.5,21.7,00.0,31.4,24.3,15.2,0000.0,0002.85,0001.22,0000.73
2022-04-24 07:25:00,,0822.5,5.00,0.00,22.5,21.7,00.0,31.4,24.3,15.2,0000.0,0002.90,0001.14,0000.72
2022-04-24 07:26:00,,0822.5,5.00,0.00,22.5,21.7,00.0,31.4,24.3,15.2,0000.0,0003.59,0001.17,0000.71
2022-04-24 07:27:00,,0822.5,5.00,0.00,22.6,21.8,00.0,31.4,24.4,15.2,0000.0,0003.55,0001.17,0000.70
2022-04-24 07:28:00,,0822.6,4.99,0.00,22.6,21.7,00.0,31.4,24.4,15.2,0000.0,0004.03,0001.25,0000.70
2022-04-24 07:29:00,,0822.5,5.00,0.00,22.6,21.8,00.0,31.4,24.4,15.3,0000.0,0004.19,0001.33,0000.72
2022-04-24 07:30:00,,0822.6,5.00,0.00,22.6,21.8,00.0,31.5,24.4,15.3,0000.0,0004.01,0001.31,0000.72
2022-04-24 07:31:00,,0822.6,5.00,0.00,22.6,21.8,00.0,31.5,24.4,15.2,0000.0,0004.01,0001.30,0000.71
2022-04-24 07:32:00,,0822.5,5.00,0.00,22.6,21.8,00.0,31.5,24.4,15.3,0000.0,0003.94,0001.27,0000.71
2022-04-24 07:33:00,,0822.5,5.01,0.00,22.6,21.8,00.0,31.5,24.4,15.4,0000.0,0003.91,0001.25,0000.70
2022-04-24 07:34:00,,0822.5,5.00,0.00,22.6,21.8,00.0,31.5,24.4,15.4,0000.0,0004.18,0001.24,0000.69
2022-04-24 07:35:00,,0822.5,5.02,0.00,22.6,21.8,00.0,31.5,24.4,15.4,0000.0,0004.58,0001.25,0000.69
2022-04-24 07:36:00,,0822.5,5.00,0.00,22.6,21.8,00.0,31.5,24.4,15.3,0000.0,0005.57,0001.28,0000.68
2022-04-24 07:37:00,,0822.5,4.99,0.00,22.6,21.8,00.0,31.5,24.4,15.3,0000.0,0004.53,0001.23,0000.68
2022-04-24 07:38:00,,0822.5,5.00,0.00,22.6,21.8,00.0,31.5,24.4,15.4,0000.0,0004.34,0001.19,0000.68
2022-04-24 07:39:00,,0822.5,5.00,0.00,22.6,21.8,00.0,31.5,24.4,15.4,0000.0,0003.82,0001.10,0000.67
2022-04-24 07:40:00,,0822.5,5.00,0.00,22.6,21.8,00.0,31.5,24.4,15.5,0000.0,0003.71,0001.04,0000.66
2022-04-24 07:41:00,,0822.5,5.00,0.00,22.6,21.8,00.0,31.5,24.5,15.6,0000.0,0003.81,0001.06,0000.65
2022-04-24 07:42:00,,0822.5,5.00,0.00,22.7,21.8,00.0,31.5,24.5,15.5,0000.0,0003.85,0001.05,0000.65
2022-04-24 07:43:00,,0822.6,5.01,0.00,22.7,21.8,00.0,31.5,24.5,15.5,0000.0,0003.92,0001.07,0000.65
2022-04-24 07:44:00,,0822.6,5.00,0.00,22.7,21.9,00.0,31.6,24.5,15.4,0000.0,0003.95,0001.08,0000.65
2022-04-24 07:45:00,,0822.6,5.01,0.00,22.7,21.9,00.0,31.6,24.5,15.4,0000.0,0003.65,0001.10,0000.66
2022-04-24 07:46:00,,0822.7,5.00,0.00,22.7,21.9,00.0,31.6,24.5,15.3,0000.0,0003.28,0001.11,0000.66
2022-04-24 07:47:00,,0822.6,5.00,0.00,22.7,21.8,00.0,31.6,24.4,15.3,0000.0,0002.07,0001.06,0000.65
2022-04-24 07:48:00,,0822.5,4.99,0.00,22.7,21.8,00.0,31.6,24.5,15.3,0000.0,0002.03,0001.06,0000.66
2022-04-24 07:49:00,,0822.5,5.00,0.00,22.7,21.8,00.0,31.6,24.5,14.5,0000.0,0002.04,0001.04,0000.66
2022-04-24 07:50:00,,0822.5,5.00,0.00,22.7,21.9,00.0,31.6,24.5,14.3,0000.0,0002.03,0001.04,0000.67
2022-04-24 07:51:00,,0822.6,5.00,0.00,22.7,21.9,00.0,31.6,24.5,14.2,0000.0,0002.05,0001.03,0000.67
2022-04-24 07:52:00,,0822.6,5.01,0.00,22.7,21.9,00.0,31.6,24.6,14.6,0000.0,0002.13,0001.05,0000.67
2022-04-24 07:53:00,,0822.6,5.01,0.00,22.7,21.9,00.0,31.6,24.6,15.0,0000.0,0002.12,0001.05,0000.66
2022-04-24 07:54:00,,0822.7,5.00,0.00,22.7,21.9,00.0,31.6,24.6,14.9,0000.0,0002.37,0001.09,0000.66
2022-04-24 07:55:00,,0822.6,4.98,0.00,22.7,21.9,00.0,31.6,24.6,15.0,0000.0,0003.77,0001.08,0000.66
2022-04-24 07:56:00,,0822.6,5.00,0.00,22.8,21.9,00.0,31.6,24.6,15.1,0000.0,0003.91,0001.09,0000.66
2022-04-24 07:57:00,,0822.6,5.00,0.00,22.8,22.0,00.0,31.6,24.6,15.0,0000.0,0003.86,0001.08,0000.67
2022-04-24 07:58:00,,0822.6,5.00,0.00,22.8,22.0,00.0,31.6,24.6,14.9,0000.0,0004.09,0001.15,0000.67
2022-04-24 07:59:00,,0822.6,5.00,0.00,22.8,22.0,00.0,31.7,24.6,14.9,0000.0,0004.27,0001.16,0000.67
